Regional Weather Roundup
Issued by NWS Lake Charles, LA

Home | Current Version | Previous Version | Text Only | Print | Product List | Glossary On
Versions: 1 2 3 4 5 6 7 8 9 10 11 12 13 14 15 16 17 18 19 20 21 22 23 24 25 26 27 28 29 30 31 32 33 34 35 36 37 38 39 40 41 42 43 44 45 46 47 48 49 50
000
ASUS44 KLCH 282110
RWRLCH
RWRLCH
REGIONAL WEATHER ROUNDUP
NATIONAL WEATHER SERVICE LAKE CHARLES LA
300 PM CST SAT FEB 28 2015

Note: "fair" indicates few or no clouds below 12,000 feet with no
significant weather and/or obstructions to visibility.


ACROSS SOUTHEAST TEXAS

CITY           SKY/WX    TMP DP  RH WIND       PRES   REMARKS
BEAUMONT       CLOUDY    58  43  57 MISG      30.25F
BEAUMONT CITY  CLOUDY    57  44  59 E12       30.26F
ORANGE         CLOUDY    57  44  61 E8        30.27F
JASPER         CLOUDY    56  39  53 SE5       30.31R
$$

ACROSS CENTRAL LOUISIANA

CITY           SKY/WX    TMP DP  RH WIND       PRES   REMARKS
LEESVILLE      CLOUDY    57  39  50 VRB3      30.27F
FULLERTON      CLOUDY    60  38  43 CALM      30.26F
ALEXANDRIA INT CLOUDY    57  37  47 VRB5      30.29F
ESLER FIELD    CLOUDY    59  35  40 N5        30.30F
DERIDDER       CLOUDY    58  40  50 CALM      30.29F
OAKDALE        CLOUDY    61  42  49 E7        30.28S
OPELOUSAS      CLOUDY    64  42  46 E6        30.27F
$$

ACROSS SOUTHWEST AND SOUTH CENTRAL LOUISIANA

CITY           SKY/WX    TMP DP  RH WIND       PRES   REMARKS
SULPHUR        CLOUDY    58  43  56 E6        30.27S
LAKE CHARLES   CLOUDY    58  43  57 E10       30.26F
CHENNAULT INT  NOT AVBL
CAMERON PHI    CLOUDY    55  50  82 SE7       30.27F
DEQUINCY       NOT AVBL
JENNINGS       CLOUDY    62  45  54 SE8       30.27F
LAFAYETTE      CLOUDY    65  45  48 SE8       30.27F
NEW IBERIA     MOSUNNY   67  45  45 E14       30.27F
ABBEVILLE      CLOUDY    66  47  50 E7        30.27S
PATTERSON      PTSUNNY   64  46  52 E13       30.28F
SALT POINT       N/A     66  50  56 VRB7      30.25F
$$

SELECTED SITES ACROSS THE REGION

CITY           SKY/WX    TMP DP  RH WIND       PRES   REMARKS
HOUSTON BUSH   CLOUDY    56  41  57 E8        30.23F
HOUSTON HOBBY  CLOUDY    56  47  71 E9        30.21F
GALVESTON      CLOUDY    56  50  80 NE16G25   30.21F
COLLEGE STAT   CLOUDY    48  35  60 E5        30.24F
CONROE         CLOUDY    53  38  56 E7        30.24F
HUNTSVILLE     CLOUDY    51  38  60 E7        30.24S
LUFKIN         CLOUDY    53  35  50 E9        30.27F
SHREVEPORT     CLOUDY    46  29  51 E5        30.32F
MONROE         CLOUDY    49  34  56 NE10      30.36F
NATCHEZ MS     PTSUNNY   64  34  32 SE7       30.31S
BATON ROUGE    PTSUNNY   65  42  43 E9        30.28F
N.O. INTL ARPT MOSUNNY   62  45  53 E12       30.30F
SLIDELL        SUNNY     65  42  43 E9        30.30F
$$

MARINE REPORTS

STATION/POSITION TIME  TEMP    WIND        PRES    VSBY  WAVE
                       AIR SEA DIR/SP/G                  HT/PER
                 (UTC) (F)     (DEG/KT/KT) (MB)    (MI)  (FT/S)
BUOY 30 S HIGH I 2100   55 56   70/ 16/ 19 1022.4F         6/ 7
SEA RIM ST PARK  2100   54      80/ 13/ 16 1024.7F
PORT ARTHUR      2100      51   80/  8/ 12 1024.6F
SABINE PASS N    2100   55 51  100/ 13/ 19 1024.3S
TEXAS POINT      NOT AVBL
CALCASIEU PASS   2100   55 52  130/  6/  9   N/A
LK CHARLES BEACH 2100   58                 1024.9F
MARSH ISLAND     NOT AVBL
FRESH WATER LOCK 2100   61 51   70/ 12/ 18 1024.5F
AMERADA PASS     2100   61 47  100/ 11/ 15 1024.9S
$$



USA.gov is the U.S. government's official web portal to all federal, state and local government web resources and services.